Theta_e
359 357 356 357 359 360 358 364 366 366 369 351 347 359 360 365 368 367 367 367 367 365 362 360 357 357 360 361 362 361 360 362 362 358 355 360 358 356 358 359 360 358 360 358 353 355 355 355 355 355 351 348 349 350 351 350 350 351 352 352 352 353 354 352 349 349 350 352 346 341 346 348 348 348 347 345 344 346 349 346 341 339 341 345 349 351 352 351 351 348 346 345 343 342 342 342 341
359 359 359 360 360 361 362 367 364 358 360 350 352 362 360 367 369 368 368 367 366 363 362 360 357 356 356 356 358 360 361 357 356 358 357 357 356 356 358 359 360 358 360 357 355 358 356 354 354 354 353 350 350 350 351 351 351 351 352 352 353 354 355 354 352 350 350 352 349 344 346 348 350 350 347 344 343 346 349 349 343 339 340 342 345 348 348 351 352 351 348 346 345 343 342 342 341
360 361 361 361 361 363 367 366 356 348 351 350 355 366 365 367 366 366 365 365 363 360 362 358 357 357 357 360 360 362 362 359 356 355 353 355 358 356 358 359 360 360 358 357 358 360 356 354 354 355 354 352 351 351 352 352 353 352 353 353 354 355 355 355 353 352 351 353 352 347 346 349 351 351 347 343 341 344 348 350 346 341 340 341 344 345 346 349 351 352 350 348 348 345 344 343 342
361 362 360 360 363 365 368 367 355 343 343 345 351 364 366 365 365 364 363 362 361 359 360 359 358 355 358 362 361 362 361 361 358 354 354 356 358 356 357 357 360 360 357 358 359 359 356 354 355 355 355 355 354 354 354 355 355 354 354 355 355 355 355 355 354 354 352 353 354 349 348 349 351 351 348 342 338 340 346 350 348 344 342 340 342 344 343 344 347 349 350 350 350 346 344 343 343
359 362 359 361 366 365 365 365 356 347 344 346 351 362 365 363 364 363 362 362 360 360 360 360 360 356 357 359 360 363 360 361 357 355 356 356 356 355 356 356 359 359 357 358 359 360 355 354 355 355 355 356 355 354 355 356 356 356 355 355 356 356 355 356 355 355 355 352 353 352 350 349 350 351 347 344 344 343 344 348 349 347 343 340 340 341 340 340 342 344 346 349 349 347 344 343 343
359 362 362 362 364 365 360 352 349 350 355 359 358 363 364 362 364 363 362 361 359 359 358 360 359 358 359 357 358 359 358 360 357 356 355 357 356 356 357 357 358 357 357 358 359 359 354 354 355 355 354 354 354 352 353 354 355 356 356 355 356 357 355 356 357 356 356 354 354 354 351 349 349 352 350 348 350 348 345 346 349 349 346 344 341 340 339 338 339 340 342 345 347 347 344 342 342
360 361 362 364 363 366 358 345 347 352 359 363 363 365 364 362 365 364 365 362 359 359 359 358 356 359 361 358 357 356 356 357 358 357 355 356 356 357 357 357 357 356 357 358 361 359 353 353 354 354 354 353 352 351 352 352 353 355 356 356 357 358 356 356 358 357 357 356 355 353 351 350 349 351 351 351 350 349 347 345 348 350 349 348 343 339 340 339 338 340 341 343 344 344 344 343 342
358 360 362 366 367 364 352 346 354 360 361 363 364 365 364 364 365 365 366 364 362 361 361 358 355 361 361 359 359 357 355 356 357 356 354 356 355 356 355 355 357 357 358 359 361 358 352 352 353 353 353 352 351 350 351 350 351 352 354 355 357 358 356 357 357 357 357 356 356 354 351 350 350 351 351 351 350 348 349 346 346 348 349 349 345 339 340 340 338 339 341 341 342 341 342 343 342
357 361 362 367 365 355 344 346 356 364 366 364 365 365 364 364 364 364 365 364 363 363 362 359 357 361 360 360 361 358 357 357 354 354 354 356 355 354 354 355 356 357 357 359 361 356 353 353 353 354 353 351 349 349 349 348 348 347 349 351 354 355 355 356 356 356 356 356 356 354 352 350 350 352 351 351 350 350 349 346 344 342 343 347 347 343 341 340 337 338 340 341 340 338 339 340 342
357 361 364 367 356 339 334 342 353 363 368 365 365 366 363 361 360 362 362 362 362 364 361 357 358 360 360 362 360 357 357 355 353 354 355 355 355 353 354 354 355 355 355 359 361 357 357 356 353 354 354 352 350 350 348 346 345 344 343 340 343 347 349 351 353 354 354 355 355 354 353 351 350 351 352 352 350 349 350 349 345 341 339 340 344 344 341 339 337 337 339 340 338 335 334 336 339
354 357 363 358 340 328 329 339 348 360 366 365 365 363 362 361 360 360 360 360 362 364 361 358 360 361 361 361 358 356 355 354 354 353 352 352 353 353 353 354 353 353 354 358 359 358 359 357 354 354 353 352 352 351 349 347 346 345 344 338 336 336 337 341 345 350 352 353 353 352 352 351 350 350 351 353 350 345 345 349 349 345 342 337 337 338 336 336 336 335 336 339 338 334 333 333 335
351 353 360 346 333 332 334 339 346 355 361 363 364 362 361 361 361 361 361 361 361 363 360 358 358 360 363 362 359 357 355 354 355 353 352 351 351 351 350 352 352 351 353 355 357 358 358 356 354 354 353 351 350 350 351 351 350 350 350 348 345 341 338 339 339 343 348 350 351 350 350 350 350 350 350 352 350 345 341 342 347 349 346 340 336 333 331 332 333 333 332 334 335 333 333 332 333
350 352 350 340 338 341 339 340 348 353 356 362 363 361 360 360 362 360 361 361 358 360 360 356 354 359 363 361 359 357 354 353 354 353 351 351 350 351 349 351 352 351 352 353 355 357 357 357 355 353 352 351 350 350 351 352 352 352 353 353 352 351 349 347 345 345 347 347 348 349 349 348 349 349 349 351 351 350 345 341 341 344 346 343 338 335 331 330 330 330 330 331 332 331 331 331 332
348 350 345 343 344 344 340 339 345 345 348 363 362 359 361 358 361 359 359 360 358 359 359 356 353 359 361 360 360 357 354 352 353 352 350 351 351 350 348 349 350 351 351 352 353 354 355 356 357 355 352 351 351 351 352 353 353 353 353 354 354 354 354 353 352 350 349 348 348 349 349 349 346 346 349 350 350 350 350 347 342 340 343 344 341 338 333 332 330 328 329 329 330 331 331 332 332
343 343 343 343 341 340 341 340 343 341 347 362 359 359 361 357 359 359 359 360 359 356 356 357 355 358 359 360 361 357 353 353 352 351 350 350 350 351 349 348 349 351 350 350 352 352 353 354 357 357 350 349 352 351 353 353 354 354 353 354 354 354 355 354 352 348 345 344 345 344 344 345 342 341 346 349 348 349 351 351 348 344 345 347 345 342 337 335 332 330 330 329 330 331 332 332 333
341 340 343 340 336 335 340 344 345 343 352 361 357 359 360 357 359 359 358 357 358 357 356 358 356 357 358 358 359 356 353 352 351 350 349 349 351 351 349 348 349 349 348 348 350 352 353 351 355 357 353 353 354 354 355 355 354 355 354 355 354 353 353 352 349 344 340 339 340 340 340 340 337 335 339 344 345 347 350 351 350 348 346 347 346 345 341 337 334 331 330 330 330 329 330 331 333
339 340 342 336 335 336 340 348 344 344 356 362 358 358 360 359 358 356 357 357 358 357 356 357 356 358 358 356 356 355 354 352 352 352 351 351 350 350 349 349 349 349 347 347 349 349 352 351 352 356 357 357 358 357 357 357 355 355 355 355 354 354 353 350 347 344 339 339 340 341 341 341 342 343 344 347 349 349 351 351 350 349 347 345 344 345 345 342 336 332 330 330 330 330 330 329 330
339 341 340 332 337 340 343 349 347 347 356 360 359 358 359 360 359 356 355 356 358 358 356 355 355 356 356 356 355 355 354 352 353 352 352 351 349 349 349 348 349 349 346 347 348 348 350 351 352 354 356 357 359 359 358 357 355 354 355 356 355 354 352 348 345 343 340 339 341 343 344 347 351 354 353 353 354 355 355 354 352 351 350 347 345 345 345 345 342 338 336 333 334 334 335 335 332
339 343 340 335 343 344 346 350 349 351 350 355 359 357 356 354 354 355 355 355 358 361 358 356 356 354 354 355 356 355 354 353 354 353 351 351 352 352 352 349 349 349 347 347 346 347 349 350 352 352 354 356 357 358 357 357 354 353 355 356 355 354 353 349 344 343 341 340 345 348 348 353 356 355 353 352 352 355 355 356 355 353 353 351 350 348 346 347 348 347 343 340 340 340 343 344 337
338 342 341 341 346 346 348 349 348 351 347 350 355 355 356 352 350 352 353 353 355 361 359 357 358 356 354 355 357 356 354 355 355 354 352 352 352 353 353 354 352 350 349 349 348 346 346 349 351 350 352 355 355 356 358 358 354 352 354 354 353 353 354 353 350 348 348 348 354 355 354 357 356 353 351 349 349 351 353 354 353 351 350 351 351 351 350 350 351 351 349 346 345 345 350 350 343
337 341 343 343 345 345 345 346 347 348 346 349 351 353 355 352 350 349 353 356 354 359 359 358 358 357 355 354 357 358 356 357 357 356 353 354 353 352 352 354 353 350 350 351 351 349 346 348 349 349 352 354 353 355 357 356 355 353 354 355 353 352 354 356 355 355 354 354 357 358 357 357 353 352 353 351 350 350 352 352 350 348 347 348 349 351 352 353 353 351 350 349 348 347 350 350 346
337 339 342 342 343 342 343 346 347 346 346 348 346 349 351 349 350 347 351 355 354 356 355 356 354 355 356 355 356 358 358 359 359 357 356 357 357 356 355 356 354 351 351 350 350 350 348 348 348 349 350 352 352 352 353 354 355 354 353 355 354 351 353 354 354 355 356 355 356 358 358 358 353 355 356 353 352 352 353 352 350 349 349 350 351 351 350 351 351 350 350 349 346 346 347 348 348
337 339 341 343 343 342 344 347 347 346 347 346 343 344 346 346 349 348 348 350 352 354 354 356 354 354 355 357 356 356 358 358 360 358 358 359 359 358 356 357 357 353 354 352 350 351 350 349 349 349 350 351 352 352 352 351 352 353 353 354 352 351 353 354 353 354 355 354 355 356 358 358 356 356 356 352 350 351 353 352 351 352 352 353 353 353 350 349 350 350 351 348 344 346 349 350 350
337 338 340 343 343 343 344 345 348 352 352 347 345 344 344 346 347 348 348 348 350 351 353 354 353 355 355 355 356 356 357 358 359 358 358 359 357 357 357 358 357 354 357 355 352 354 353 351 350 349 350 350 351 352 352 350 349 350 351 353 351 351 354 356 354 353 353 353 354 355 356 358 356 354 353 351 349 350 350 349 351 354 354 354 353 354 354 352 351 351 350 347 346 347 349 350 349
337 337 339 342 343 344 343 343 347 353 353 349 349 348 346 344 345 348 347 348 349 349 353 354 354 355 353 353 354 354 355 357 358 358 357 357 356 357 357 357 355 355 360 359 356 357 356 355 353 352 352 351 351 351 351 351 350 350 351 352 353 352 353 355 353 351 351 351 353 355 358 360 357 355 353 352 351 349 349 348 350 353 354 355 354 354 354 352 352 352 349 347 346 347 347 349 349
334 338 340 342 343 344 343 345 345 347 349 350 350 350 348 342 344 349 346 347 349 349 352 352 354 354 352 354 355 354 354 355 357 359 358 357 357 359 358 356 356 360 362 361 358 356 356 356 355 353 352 352 353 352 350 350 350 350 352 352 353 353 352 352 350 349 350 351 351 354 359 360 358 358 355 353 353 350 349 349 348 350 352 354 353 353 352 351 352 353 352 350 348 348 349 350 351
332 338 340 340 343 344 343 344 344 344 347 349 350 348 347 345 348 350 347 346 347 349 351 348 352 356 355 355 355 356 355 354 356 358 358 357 358 358 359 357 359 362 360 359 358 355 355 355 354 355 354 353 353 354 353 352 351 351 352 352 352 353 352 352 352 351 352 352 352 353 355 356 358 358 354 352 352 350 350 350 349 350 352 353 352 352 351 350 351 352 352 352 350 351 352 353 352
332 337 340 340 341 343 344 345 344 345 346 347 349 349 349 351 350 350 347 347 347 350 353 353 354 358 357 354 355 357 354 354 355 357 358 356 354 354 357 359 360 360 359 357 357 357 357 356 356 357 357 356 355 355 354 354 354 353 354 355 355 354 354 354 354 355 354 353 353 354 353 354 355 356 355 353 350 350 351 351 352 352 353 353 353 353 351 351 352 351 351 351 351 351 352 353 352
332 337 340 340 341 343 343 345 347 347 346 347 350 347 349 355 352 348 347 346 348 350 353 356 357 356 353 352 355 356 355 354 355 356 356 354 351 351 355 357 356 356 357 356 357 359 359 358 358 357 358 358 357 356 355 355 355 355 355 356 356 355 355 355 354 356 354 353 354 355 355 355 355 355 354 352 351 350 350 351 351 352 352 353 353 353 352 352 352 352 352 352 351 351 352 352 352
335 336 337 338 338 341 344 346 349 349 348 350 347 337 342 356 352 347 348 345 346 350 350 353 355 354 352 353 353 355 357 355 356 356 355 352 350 352 353 353 353 352 353 354 357 360 361 361 359 359 359 358 359 358 357 356 355 355 356 356 355 354 355 355 354 354 353 353 355 356 356 355 354 353 351 351 350 350 350 351 351 351 352 352 353 352 352 352 351 352 352 352 352 352 352 352 352
337 336 337 337 327 331 343 344 347 348 346 348 345 334 339 355 352 347 349 346 345 348 349 349 352 353 353 354 353 353 357 356 357 359 355 351 349 351 351 352 353 351 351 353 356 358 359 361 359 358 359 358 359 358 356 355 354 355 357 356 354 353 354 354 353 352 353 354 355 355 355 354 353 351 350 350 351 351 351 351 352 352 351 352 352 352 351 351 351 351 350 350 352 352 352 351 351
337 329 327 333 324 328 344 342 343 346 344 347 342 334 342 352 347 348 351 349 348 346 346 348 351 353 352 353 353 349 351 354 355 356 357 352 348 350 352 352 353 353 354 355 356 357 357 358 359 358 357 357 358 357 356 355 354 355 356 356 354 352 352 353 352 352 354 356 355 355 354 353 354 353 353 353 353 353 353 352 353 352 352 352 352 352 352 352 352 351 350 350 350 351 351 350 351
331 325 318 322 323 327 339 341 341 344 345 347 341 336 344 350 345 348 351 348 349 346 342 344 347 349 349 350 350 347 345 349 351 354 356 356 351 350 351 352 354 356 358 358 357 358 357 356 359 358 355 355 357 358 357 356 355 355 356 356 355 353 354 356 355 353 354 356 355 355 354 354 355 354 353 354 355 354 354 354 354 353 352 353 353 353 353 352 353 352 352 352 350 350 350 351 351
322 324 318 320 327 326 329 337 341 343 344 345 342 341 344 348 346 346 348 347 348 346 342 343 343 344 346 345 345 345 345 346 349 352 354 355 353 352 352 352 355 357 357 357 358 358 358 357 358 357 353 354 357 356 356 356 356 356 356 356 355 355 356 357 355 354 354 356 356 355 356 355 354 353 353 354 355 354 354 354 354 354 353 353 353 353 353 352 353 353 353 352 351 351 351 352 352
315 317 315 316 323 324 325 333 340 343 340 340 341 341 343 346 347 347 345 347 346 344 343 342 343 343 344 343 343 344 345 346 347 350 353 354 354 354 353 353 354 355 354 355 357 357 357 356 355 354 351 354 356 355 355 356 357 357 356 356 355 356 356 355 355 356 356 356 356 356 356 355 354 355 355 354 354 353 354 354 355 354 353 354 353 352 352 352 353 352 352 352 351 351 352 352 352
321 320 318 315 317 321 329 335 339 342 339 340 340 339 342 343 346 348 345 346 347 346 345 343 343 343 343 344 345 345 347 349 349 349 351 354 357 356 354 356 356 355 353 354 355 355 356 354 352 351 350 354 356 355 356 356 357 357 356 354 354 355 355 356 357 358 357 357 356 356 356 356 355 356 356 355 354 353 354 355 355 355 354 354 353 352 352 352 352 352 352 352 352 352 351 351 352
328 325 321 319 317 319 331 337 339 341 335 337 342 340 341 343 346 350 348 349 349 346 346 344 344 344 346 346 345 348 349 351 351 350 354 357 357 356 355 357 359 360 358 357 354 352 354 354 351 350 350 352 354 354 354 355 355 354 354 354 354 354 355 356 358 358 357 357 356 356 357 357 356 355 356 356 355 353 353 354 355 355 354 354 353 353 352 352 352 352 352 352 351 351 351 351 350
329 324 320 319 318 321 330 335 336 338 332 333 341 340 340 344 347 350 349 349 347 345 346 345 344 345 348 348 348 350 350 350 353 354 357 359 359 358 357 357 358 360 360 360 360 357 357 358 355 353 351 349 351 355 356 354 354 354 353 354 354 353 353 353 355 357 357 357 356 357 357 357 355 355 355 355 355 355 354 354 354 354 354 353 354 353 352 352 352 352 352 351 351 350 351 350 348
327 325 320 316 319 324 330 336 336 335 332 335 341 337 337 345 347 347 348 347 347 347 347 344 344 347 347 348 348 349 351 352 354 356 358 359 361 359 358 358 355 357 358 358 361 361 361 362 360 360 357 352 351 355 357 357 356 357 355 354 355 353 351 350 353 356 357 357 357 358 358 357 356 355 355 355 355 355 354 354 353 354 354 353 353 353 353 352 352 352 351 350 350 348 349 349 349
327 325 318 314 321 320 319 331 339 335 332 338 342 334 337 346 346 348 348 349 352 352 349 345 345 348 347 346 347 347 351 352 352 356 359 359 360 360 358 358 355 355 356 356 358 359 360 361 360 361 360 358 356 356 357 357 356 356 355 354 355 352 349 351 354 356 356 356 357 357 357 356 357 356 356 356 355 354 353 354 353 353 355 353 352 352 353 352 352 353 352 351 350 349 349 351 352
326 327 320 317 322 320 319 329 335 334 330 338 338 324 331 345 343 351 355 352 355 353 353 353 350 350 348 345 346 347 349 350 351 355 357 357 358 358 357 357 357 355 357 357 357 358 358 359 359 360 359 358 358 358 358 358 357 355 353 353 353 352 353 355 356 357 356 356 357 357 356 356 357 357 356 356 355 355 354 354 353 354 355 354 353 353 353 352 352 353 352 351 351 351 350 350 352
319 326 326 323 325 324 324 327 324 319 318 332 333 314 321 344 343 350 356 353 354 353 358 361 356 352 348 346 346 348 351 350 351 353 354 356 356 356 357 356 357 357 357 358 358 359 359 359 359 359 359 358 357 358 358 357 358 357 356 356 356 356 356 357 356 355 356 357 358 358 357 357 356 356 356 356 355 355 353 351 351 354 355 354 354 354 353 353 352 353 353 352 351 350 349 349 351
313 322 329 328 329 325 323 324 318 311 312 328 333 315 317 335 341 348 353 352 355 355 359 362 359 354 348 348 348 349 354 353 351 353 354 354 353 355 357 356 357 357 358 358 358 358 358 358 359 357 357 357 357 357 357 357 358 358 358 357 357 357 357 357 356 356 355 356 358 358 358 357 356 356 356 356 355 354 354 352 353 355 356 355 355 354 353 353 353 353 353 352 351 351 350 349 351
315 325 329 327 327 325 324 322 317 315 317 324 329 321 318 324 334 345 351 352 357 355 355 358 356 353 346 348 350 350 354 355 354 355 355 355 354 356 356 357 358 358 359 359 358 358 358 357 357 357 357 357 357 357 357 357 357 358 357 357 358 357 357 357 356 356 357 356 357 357 357 356 356 356 356 356 356 355 353 354 355 356 356 356 355 353 353 354 354 353 352 350 349 350 351 350 351
323 328 328 327 326 326 327 324 318 320 319 314 319 322 319 321 334 346 353 354 356 355 354 355 353 351 349 349 349 352 354 355 355 355 355 356 356 356 355 356 357 358 359 359 358 358 358 357 356 356 357 357 357 357 357 356 357 357 357 357 357 357 356 356 356 356 356 355 355 355 356 356 355 355 355 355 355 356 355 355 356 357 356 356 355 354 354 354 353 352 352 352 351 350 351 350 351
328 329 328 327 327 327 328 325 319 319 318 311 315 318 316 320 332 340 344 348 353 356 354 354 352 351 356 352 348 353 353 352 354 355 356 357 356 355 354 356 357 358 359 358 358 357 357 357 357 357 357 357 357 356 357 357 356 356 356 356 357 356 356 356 356 356 355 355 356 356 356 356 356 355 355 354 355 356 356 356 356 356 356 355 355 355 354 354 353 351 352 353 353 353 351 351 351
328 327 327 325 326 328 327 325 320 315 314 313 315 317 314 320 332 338 339 344 352 357 354 352 352 349 352 350 348 352 352 349 350 355 357 356 357 357 357 358 357 357 358 357 357 357 356 357 357 357 356 355 354 353 354 354 354 354 354 354 354 354 354 355 355 355 355 356 356 357 356 356 356 355 355 355 354 355 355 355 355 355 355 355 355 356 355 355 354 353 353 354 354 354 352 352 351
327 327 325 318 317 321 318 317 318 314 312 313 316 319 314 317 331 341 343 347 350 355 355 353 353 350 349 349 347 350 351 350 351 356 358 357 357 358 358 358 357 356 355 355 356 355 355 354 354 354 353 352 351 350 350 351 350 351 350 350 350 349 350 350 350 350 351 354 355 355 356 356 356 356 355 355 355 354 354 353 354 354 353 354 355 356 356 355 355 355 354 354 354 353 353 352 351
328 325 318 311 309 312 311 311 312 311 311 314 317 320 315 317 332 340 343 346 344 350 353 352 352 351 350 350 348 349 351 351 352 354 355 355 356 357 357 357 356 355 354 353 353 352 351 350 350 350 350 350 350 349 348 349 349 348 346 346 346 345 344 344 345 345 347 350 350 350 352 353 353 354 355 355 355 354 354 353 353 353 353 354 354 355 355 355 355 355 355 355 353 352 353 353 351
326 320 314 310 308 309 310 310 310 311 311 314 319 320 315 319 333 340 342 341 343 348 348 349 351 351 352 349 347 350 351 351 352 353 350 351 355 356 356 356 354 353 351 350 349 347 347 347 347 348 349 349 349 348 347 347 348 347 346 345 344 343 342 343 343 344 346 347 347 347 347 347 347 350 352 353 353 353 353 353 353 353 353 353 353 354 355 355 355 355 355 355 354 352 352 353 352
326 327 321 313 310 310 310 309 309 311 311 313 318 319 316 320 334 343 341 338 343 345 345 349 351 352 352 348 348 351 350 350 351 350 349 351 354 354 355 354 352 350 347 345 345 344 345 346 346 347 347 347 347 347 347 347 346 346 346 345 344 344 344 344 344 345 345 345 345 345 345 344 343 346 347 348 349 351 352 352 352 353 353 353 353 354 356 356 355 356 355 354 354 353 352 352 352
325 330 322 313 315 315 311 310 311 311 311 313 315 321 327 334 343 345 340 342 346 345 347 352 351 351 350 347 348 350 350 351 350 349 352 352 352 353 352 351 349 346 343 342 343 344 344 345 346 345 345 344 345 345 345 344 343 343 343 342 343 344 344 345 345 345 345 344 344 344 344 343 343 344 344 344 346 347 348 350 351 351 351 353 353 354 354 354 354 354 354 353 354 354 353 352 352
322 321 316 319 327 322 311 309 313 311 312 314 313 319 330 340 347 347 345 351 353 350 350 352 354 354 352 350 351 351 352 350 349 350 351 349 349 349 347 345 345 343 342 342 342 342 343 343 343 343 342 342 342 343 342 342 341 341 341 340 341 342 343 343 343 343 344 343 343 344 344 343 344 343 343 344 345 345 345 346 347 347 347 350 352 352 353 353 352 353 353 352 353 353 353 352 351
322 315 318 325 327 326 317 310 312 311 312 314 311 319 331 337 341 347 348 354 353 353 354 352 353 351 349 350 350 350 351 349 349 350 349 347 345 344 342 341 341 340 341 342 341 341 341 341 342 342 341 341 340 340 340 339 340 340 340 340 340 341 341 341 341 342 342 342 342 343 342 343 344 344 343 344 345 345 345 345 345 344 343 344 347 350 351 352 351 352 353 352 352 352 352 351 350
326 320 326 325 315 315 315 311 312 312 313 314 311 324 339 339 341 346 348 354 353 352 353 352 352 351 350 349 348 350 351 350 352 351 348 346 341 340 340 339 340 341 341 341 341 341 342 342 342 342 341 340 339 340 339 339 339 340 341 340 339 339 340 340 341 341 342 342 342 342 342 342 342 343 343 344 344 344 345 345 344 344 342 342 344 347 349 351 352 352 353 352 351 351 352 352 351
328 326 330 327 317 316 314 313 314 311 313 313 311 327 342 343 348 351 350 354 352 350 353 353 354 354 352 352 351 353 354 354 356 352 344 341 339 339 340 339 341 341 341 342 342 341 342 341 341 341 340 340 340 340 339 338 339 339 339 339 338 339 340 340 341 342 342 342 342 342 342 342 342 342 343 343 343 343 343 343 344 344 343 343 344 345 346 348 350 351 352 352 353 352 353 353 352
323 320 321 321 321 321 318 317 315 311 314 312 314 332 343 346 355 357 352 354 351 350 354 353 353 353 352 353 352 353 355 356 357 352 339 340 340 339 340 340 342 341 341 342 341 341 341 340 341 340 340 341 339 340 339 338 338 339 339 338 338 339 339 340 341 341 342 342 342 342 342 341 341 342 342 342 342 342 342 342 343 344 344 344 344 344 344 345 347 348 350 353 354 353 353 353 352
326 321 320 319 319 318 315 317 316 313 315 311 315 336 346 350 356 357 354 355 351 352 354 352 352 352 351 352 350 349 352 353 354 348 341 343 342 341 342 341 342 342 343 342 341 342 341 340 341 340 340 339 338 338 338 337 338 338 339 338 338 339 339 340 341 340 341 342 341 342 342 341 341 341 341 341 341 341 341 342 343 343 343 343 343 343 342 342 344 344 346 349 350 351 352 353 352
Wind_Speed
8 10 10 10 10 6 3 2 1 0 1 1 3 3 2 5 4 5 6 4 1 3 6 3 7 12 9 9 10 11 9 8 6 2 3 7 20 24 21 27 27 26 25 24 25 23 23 22 21 21 21 21 19 18 18 17 16 15 14 14 14 13 12 11 11 11 11 11 12 14 14 13 12 11 11 11 10 10 9 9 8 8 8 8 8 7 7 7 8 9 9 10 10 10 10 10 10
10 11 12 12 11 5 2 2 0 1 1 2 3 3 2 4 4 6 8 6 3 4 7 7 11 14 11 10 9 10 9 10 9 7 7 18 23 22 24 26 26 26 25 25 25 21 22 23 21 21 20 20 19 18 17 16 15 14 14 14 14 14 12 11 11 11 11 10 11 13 13 12 12 11 10 10 10 9 9 9 8 8 8 8 7 7 7 6 6 7 8 8 9 10 10 10 10
10 9 9 7 5 4 0 1 1 1 3 3 3 2 2 4 6 6 8 8 6 6 8 9 10 9 8 10 9 8 6 8 8 9 11 21 18 19 25 24 24 25 24 24 22 20 22 23 22 20 20 19 19 17 16 16 15 14 15 15 15 14 13 12 11 11 10 10 10 12 13 12 11 10 10 9 10 9 9 9 8 7 8 8 7 7 6 6 6 6 6 7 8 9 10 10 10
10 8 9 7 1 4 1 1 2 3 3 4 3 3 5 6 7 7 6 7 6 7 6 5 5 4 6 10 6 6 4 4 4 3 11 17 16 22 26 24 24 23 23 23 21 21 22 24 22 20 20 19 18 17 16 16 15 15 15 15 15 14 13 13 11 10 10 9 9 10 11 11 11 10 9 9 9 9 9 8 7 7 7 7 8 7 6 6 6 6 6 5 6 7 9 9 9
11 12 11 8 1 1 1 1 3 5 5 4 3 4 7 5 3 4 4 2 4 9 7 5 4 2 6 8 2 3 2 2 5 2 11 17 21 25 25 24 23 22 22 21 21 21 22 24 22 21 20 19 18 17 16 16 15 14 14 14 14 14 13 12 11 10 10 9 9 9 10 10 10 10 9 9 9 8 8 8 8 7 7 7 7 7 6 6 6 5 5 5 4 5 7 8 8
12 13 10 6 1 1 1 2 4 6 7 6 5 6 5 2 3 2 2 2 8 11 9 7 4 2 6 6 3 5 5 2 3 3 12 18 24 25 24 24 21 22 22 21 20 20 24 23 22 22 20 18 18 17 16 15 14 14 13 13 13 13 12 12 11 10 10 9 9 9 9 9 9 9 9 9 9 8 8 9 8 7 6 7 7 7 7 6 6 5 5 4 3 3 5 6 6
9 6 5 4 2 2 2 6 6 6 7 7 7 6 4 2 2 1 3 3 8 9 9 8 5 4 4 3 3 5 7 3 3 8 15 19 24 23 22 21 20 21 21 21 20 21 24 23 22 22 19 18 17 17 16 14 14 13 13 12 11 11 11 11 10 10 10 9 9 9 10 9 8 9 9 9 9 7 7 8 9 8 7 6 7 7 7 6 6 5 4 4 3 3 3 4 5
6 1 2 3 2 2 3 8 7 6 8 8 8 7 5 3 2 3 4 4 6 7 8 7 7 9 5 1 2 3 5 2 7 15 19 21 23 22 20 20 20 21 20 20 20 23 24 22 22 21 20 18 17 17 15 14 13 12 12 11 11 10 10 11 10 10 10 9 9 9 10 10 9 9 9 8 8 8 7 8 9 8 8 7 6 7 7 7 6 5 4 3 3 3 3 3 3
5 2 2 2 3 1 4 9 7 7 9 9 9 7 6 5 3 4 6 7 5 7 9 6 4 8 4 4 6 1 3 3 12 19 19 21 21 20 20 19 19 21 20 20 21 23 23 22 21 20 20 18 17 16 14 14 13 12 12 11 11 10 10 12 11 10 9 9 9 9 9 9 9 8 8 8 8 8 7 7 8 8 8 7 7 7 7 7 6 6 5 4 3 3 3 2 2
3 4 3 3 3 3 7 8 7 8 9 9 9 8 7 6 6 6 7 8 5 6 8 6 7 8 4 5 6 1 5 9 15 20 18 19 18 18 20 18 18 19 19 20 21 21 19 20 20 20 19 18 16 15 14 13 12 12 11 11 11 11 10 11 11 10 10 9 9 9 9 9 10 9 8 8 8 8 7 7 7 7 7 6 6 6 6 6 7 6 5 4 3 2 2 2 2
3 2 3 3 3 7 7 7 7 9 9 8 8 8 8 7 7 7 7 8 5 6 5 2 5 7 6 6 2 1 8 14 16 19 19 17 16 17 18 17 17 17 17 19 19 19 18 18 18 18 17 17 16 15 14 12 12 11 10 10 10 10 10 10 11 10 10 10 9 9 9 9 10 10 9 8 8 8 8 7 7 7 6 6 5 5 6 6 6 6 5 4 4 3 2 1 1
5 3 2 2 6 7 7 8 8 10 10 10 9 8 7 5 6 7 7 7 5 7 6 3 3 3 5 7 1 3 8 15 15 17 18 15 15 16 17 16 17 16 16 16 18 18 18 18 17 17 16 16 16 15 14 13 12 11 10 10 9 8 9 9 9 10 10 10 10 10 11 11 10 10 10 9 9 8 8 8 7 7 7 6 5 5 5 6 6 6 6 5 5 4 3 3 1
4 5 2 5 7 7 8 8 7 9 11 11 9 7 6 4 6 7 7 8 7 7 6 6 6 3 4 6 2 2 7 14 14 15 15 13 13 15 15 14 15 16 16 15 16 18 18 18 17 17 16 15 15 14 14 13 12 12 11 10 9 8 8 8 8 9 9 10 10 11 11 11 11 10 10 10 10 9 9 9 9 8 8 7 6 6 6 7 7 7 6 6 6 5 5 5 4
3 4 2 4 5 7 8 7 8 9 10 12 7 6 6 5 5 6 7 8 8 6 4 3 4 5 5 5 3 1 7 13 13 13 13 12 12 14 15 14 14 15 17 15 15 17 17 16 17 17 17 16 15 14 14 13 13 13 12 12 11 10 9 9 9 9 9 9 10 11 11 11 11 11 11 11 11 11 10 10 10 10 9 8 8 8 8 8 8 7 7 7 7 6 6 6 6
4 3 2 5 6 7 8 8 10 9 12 13 3 2 6 3 4 4 6 7 7 4 2 2 1 3 5 5 5 4 9 13 12 11 11 11 11 12 14 13 14 14 15 15 15 17 16 16 16 17 17 16 15 14 14 13 13 13 13 13 12 12 11 10 10 9 9 10 10 11 11 11 11 11 11 11 12 12 12 11 11 11 11 10 9 9 9 9 9 8 8 8 8 8 7 7 8
4 4 4 6 7 8 9 9 10 9 11 9 5 3 5 2 2 2 4 3 5 2 2 2 2 2 4 5 7 10 11 12 10 11 12 11 10 11 12 12 12 13 13 14 14 15 15 16 15 16 18 17 16 15 14 14 14 14 13 13 13 13 12 11 11 10 9 9 9 9 9 9 10 10 11 11 11 11 12 12 12 12 12 12 11 10 9 9 9 10 9 9 9 8 8 8 9
3 4 6 6 8 9 9 9 9 9 9 8 7 4 4 2 1 3 3 4 6 1 3 2 1 1 4 8 11 13 12 11 9 10 11 11 10 10 10 10 11 11 10 12 14 14 14 15 15 16 17 17 16 15 15 14 14 14 14 13 13 13 13 12 11 11 10 9 9 8 8 9 9 9 9 10 9 10 12 12 12 12 13 13 13 12 11 10 11 11 11 10 10 10 9 9 10
2 4 7 7 8 9 9 11 9 9 9 9 9 6 6 3 3 5 6 7 7 5 1 2 1 5 8 12 14 13 12 11 10 10 10 10 10 9 9 10 10 10 9 10 11 13 14 14 15 15 16 16 17 16 16 15 15 16 15 14 14 14 13 13 13 12 11 11 10 10 10 9 9 11 12 11 10 10 11 12 11 11 13 14 14 14 13 13 13 13 13 13 13 12 11 11 11
3 5 6 7 8 10 9 10 9 9 9 8 11 9 7 3 3 6 4 6 9 7 4 3 6 10 10 13 13 13 12 11 10 10 10 7 6 4 5 6 6 7 7 8 10 12 13 13 14 14 15 17 18 17 16 15 16 17 16 15 15 15 14 14 14 13 13 13 12 12 11 11 12 13 15 13 10 11 12 12 12 12 12 13 13 14 15 15 14 15 16 15 14 14 13 13 13
5 5 5 7 8 10 9 9 9 8 9 9 9 9 7 2 1 3 1 3 6 8 5 5 9 10 9 11 11 13 13 11 9 8 9 10 11 4 2 4 6 6 2 1 7 10 11 13 14 13 16 19 19 17 16 15 16 17 17 17 18 17 16 15 15 14 14 14 13 14 12 13 14 14 15 14 12 12 13 13 13 12 12 13 13 14 15 15 16 17 17 16 16 15 13 13 14
5 5 6 9 8 8 10 10 9 8 8 7 6 8 7 4 0 2 5 4 3 5 6 6 9 6 9 11 9 10 11 9 6 6 7 9 11 5 1 5 7 4 2 3 2 7 10 12 13 13 16 19 19 18 17 16 16 17 17 16 17 18 17 17 16 16 16 14 15 16 15 15 15 15 15 15 15 14 14 14 14 14 14 14 14 14 15 15 16 19 18 18 19 18 14 14 14
3 9 9 11 10 9 11 10 7 8 8 7 8 8 6 6 4 8 11 8 6 5 5 11 12 6 7 10 9 8 8 7 4 5 4 5 8 5 2 3 6 6 3 5 5 6 8 10 12 13 14 17 17 17 18 16 17 18 18 16 17 20 19 18 18 18 17 16 18 17 16 17 16 15 16 15 14 15 15 15 15 14 14 14 14 15 16 16 18 19 19 19 20 20 17 15 14
4 9 11 13 13 9 9 9 9 9 9 9 11 9 7 8 9 11 15 12 12 15 11 12 12 6 5 7 7 8 8 7 4 4 3 4 4 2 1 2 4 6 5 8 10 9 9 10 11 12 13 16 16 16 17 16 17 17 17 16 17 18 17 17 18 18 18 18 20 18 17 18 17 16 17 16 15 15 16 15 15 14 14 15 14 14 16 17 19 19 20 20 19 20 17 15 16
7 6 11 14 14 9 7 9 9 8 9 9 9 9 10 10 11 12 14 13 16 20 12 12 16 10 6 8 6 5 5 4 6 6 4 3 3 1 1 0 2 5 4 8 11 9 10 10 11 12 12 15 15 15 16 16 16 17 16 16 17 16 15 16 17 18 17 17 18 18 18 18 18 18 18 18 17 17 17 17 16 15 16 16 13 13 14 15 17 19 22 22 19 19 19 18 16
9 5 10 13 12 9 8 7 7 7 5 7 7 8 9 8 10 12 13 14 14 13 10 10 16 14 10 10 8 8 8 4 3 6 5 4 3 3 2 2 4 5 5 6 9 9 8 7 9 10 10 14 14 13 14 13 14 15 15 15 14 14 14 13 14 13 11 11 15 17 17 16 17 16 16 18 18 19 20 19 18 17 18 17 13 13 15 15 16 18 22 23 21 19 20 18 16
9 4 8 10 13 10 5 6 6 5 4 5 7 6 7 7 7 11 12 13 12 9 9 10 13 16 12 9 9 8 3 3 1 3 3 4 3 2 2 4 6 6 6 7 9 9 10 9 8 8 8 11 14 14 15 14 12 12 12 13 13 13 13 12 11 9 5 5 11 15 16 14 13 13 15 16 17 19 19 19 19 20 20 18 16 16 17 16 17 17 18 20 20 18 18 17 15
4 3 7 8 12 11 5 6 7 5 5 6 6 6 8 10 8 8 9 11 12 10 10 8 8 13 12 9 8 8 7 5 2 2 1 2 2 1 3 5 5 6 7 9 11 10 10 11 9 7 8 10 13 14 14 12 12 11 9 11 12 11 12 12 11 10 9 6 4 9 14 13 13 14 15 14 15 17 18 19 19 21 21 19 19 20 19 18 18 19 18 17 17 17 17 16 15
2 4 7 7 9 11 8 6 7 5 3 5 5 5 8 11 10 7 6 9 12 10 8 7 8 9 8 8 6 5 5 4 4 4 3 3 2 4 6 6 6 8 11 12 12 10 9 10 8 8 8 8 9 9 8 8 9 9 8 10 11 11 12 12 10 9 11 8 4 6 11 12 13 15 17 15 15 16 17 18 19 21 21 20 19 20 20 19 19 20 19 18 17 18 17 15 15
4 4 3 7 8 7 7 5 6 6 3 4 4 4 6 9 8 6 5 7 11 9 6 6 6 5 5 6 5 5 6 7 6 7 6 5 3 6 8 8 8 12 13 13 13 10 9 8 8 8 7 6 6 6 7 8 8 9 10 12 13 13 12 12 11 9 11 11 9 9 10 11 12 14 16 16 16 17 18 18 19 21 20 19 18 19 20 20 20 19 18 18 17 17 18 17 16
4 4 2 3 5 4 7 6 8 8 5 5 3 2 5 6 3 4 6 6 7 7 5 6 5 3 3 3 4 5 8 10 9 9 12 9 4 7 9 10 10 12 12 12 13 12 10 8 8 7 5 6 7 9 12 12 11 9 10 12 13 12 12 13 13 12 13 14 12 11 12 14 15 15 17 18 18 19 20 19 20 20 20 19 18 18 20 20 19 19 19 18 17 16 17 17 17
3 8 4 6 5 4 6 7 10 8 6 8 5 4 3 3 4 3 4 5 3 2 6 8 6 4 2 2 2 4 7 8 8 9 18 23 15 11 10 9 8 11 11 10 11 11 11 9 8 7 6 6 8 10 13 13 12 10 10 12 13 13 12 13 14 13 14 15 14 13 13 14 16 18 18 19 20 20 20 19 19 20 19 19 18 18 20 19 16 17 18 18 17 16 16 16 18
5 6 7 9 4 4 8 10 11 7 7 12 5 5 4 4 5 5 5 4 2 1 5 8 8 6 4 3 4 4 6 8 8 6 12 25 27 24 18 10 11 13 11 10 9 8 10 10 9 7 6 7 8 10 10 11 13 12 13 14 14 15 14 13 13 12 11 12 14 15 14 15 15 16 16 17 19 19 19 18 17 19 19 18 17 17 19 19 17 17 17 17 16 15 15 16 17
5 7 7 8 7 6 8 11 11 6 8 13 9 4 5 5 5 7 8 6 4 2 3 5 6 5 4 4 5 2 3 5 6 4 4 13 21 25 22 13 14 13 8 8 7 5 5 7 9 7 5 7 9 11 10 11 11 11 13 14 14 14 13 12 12 11 11 12 15 15 15 16 14 13 14 16 18 18 17 16 15 16 17 16 16 16 18 18 17 16 15 16 16 15 16 16 16
3 6 5 1 10 11 7 10 10 7 6 8 8 4 7 11 8 7 10 7 1 2 3 5 4 2 1 1 3 3 1 3 5 5 6 7 8 12 18 18 12 5 4 4 3 4 6 4 5 2 5 7 10 9 7 8 8 9 12 12 13 12 11 10 11 11 11 12 14 14 13 14 14 13 14 15 16 15 14 13 13 13 14 14 14 16 16 15 14 14 15 17 17 16 15 15 16
8 6 7 5 5 9 7 7 10 11 7 5 5 4 7 12 10 6 7 8 5 0 2 5 3 2 4 4 5 3 2 4 6 7 8 5 4 5 10 19 14 6 3 3 3 2 4 5 4 2 7 8 7 7 5 7 7 8 10 11 11 11 10 10 10 9 9 10 12 12 11 11 12 13 11 11 12 12 12 12 11 12 13 13 14 14 14 14 14 14 15 16 17 17 16 16 18
13 9 6 8 2 7 9 8 10 12 8 3 4 6 6 10 13 9 5 6 7 3 6 6 4 4 5 4 3 2 3 5 6 6 6 5 4 6 6 11 15 14 12 7 4 3 1 3 3 1 7 8 5 7 7 7 6 7 9 10 10 8 9 9 8 7 9 11 10 10 9 7 8 10 8 7 7 8 10 10 10 11 12 12 13 13 14 14 13 13 14 15 16 17 17 17 18
11 9 9 11 5 7 10 10 11 9 4 4 7 6 5 8 14 13 8 7 8 8 8 6 2 3 5 4 3 3 4 4 5 6 5 5 5 4 5 5 7 10 11 10 8 7 5 6 3 3 7 9 5 6 6 4 5 6 7 8 8 8 8 8 8 7 8 10 9 8 6 5 6 7 5 5 7 6 8 10 10 11 11 12 13 13 14 13 13 13 13 13 14 15 16 16 18
11 10 9 10 7 6 12 11 11 6 1 4 6 3 4 10 13 14 10 7 8 9 8 7 3 3 5 5 3 2 3 4 4 6 6 7 5 3 3 4 5 6 6 6 5 6 5 4 2 3 9 13 8 3 3 3 3 5 5 7 9 9 8 7 7 6 6 7 6 6 6 5 7 6 4 5 8 7 8 10 10 11 12 12 13 14 14 12 12 12 10 12 12 13 14 16 17
9 9 8 6 5 6 10 10 8 5 1 4 6 5 5 12 13 12 10 6 6 6 5 7 6 5 1 3 3 2 1 2 3 6 6 6 5 2 3 3 4 3 5 6 5 6 4 2 2 3 6 10 9 5 1 1 1 4 5 7 8 7 7 7 6 5 6 7 6 5 6 6 6 5 4 4 6 7 10 10 8 9 12 12 12 11 11 11 11 11 11 11 11 11 13 16 17
8 7 9 6 5 6 4 8 9 7 3 5 7 6 3 10 11 10 7 8 8 4 2 5 7 7 4 2 1 2 1 1 2 6 5 5 5 4 5 4 3 4 5 6 5 6 6 5 6 6 7 7 8 7 4 3 1 1 2 5 4 5 6 5 4 4 4 6 6 6 6 6 5 5 4 5 6 5 8 11 10 12 12 11 11 9 9 10 10 11 11 10 10 11 13 14 14
10 6 8 7 8 9 6 1 7 9 6 8 8 5 4 9 9 9 8 9 10 5 4 4 6 7 5 3 3 0 1 1 2 5 4 4 6 6 6 5 5 6 6 7 8 8 8 8 8 9 10 10 10 10 8 6 4 2 1 4 5 6 4 1 4 6 5 5 6 7 7 5 5 5 4 5 6 3 5 10 12 12 11 10 10 10 10 10 9 10 10 11 12 14 14 13 11
8 8 8 8 10 10 9 10 9 6 4 10 9 4 3 9 10 11 9 8 10 7 5 3 2 4 5 3 3 1 0 1 3 4 4 5 6 6 7 7 7 8 7 9 9 8 8 9 9 10 11 11 11 11 10 9 9 8 6 4 3 4 6 8 9 9 7 7 7 7 9 8 7 7 6 6 7 4 4 9 11 10 9 8 8 9 10 10 10 10 10 12 14 15 14 13 13
3 8 12 11 10 11 10 12 10 7 6 5 8 3 0 8 9 10 11 9 9 6 4 4 2 2 4 4 2 1 1 2 3 4 4 4 5 6 6 7 8 9 8 9 9 9 10 10 10 11 11 11 11 11 11 11 11 11 11 10 10 10 11 11 10 10 9 10 8 8 10 10 10 9 8 8 8 8 6 9 10 7 6 5 6 8 10 10 10 12 11 12 14 14 14 14 14
3 10 13 11 11 12 12 12 9 7 9 5 2 3 3 4 7 11 13 12 8 4 5 5 2 4 5 5 2 2 2 2 3 4 4 4 5 6 7 8 10 10 10 9 10 10 11 11 12 11 11 11 11 11 12 12 12 12 12 12 12 12 12 11 10 10 10 11 10 9 10 10 10 9 8 8 9 9 6 7 8 7 5 5 7 9 10 10 10 11 12 11 12 14 15 14 13
6 13 12 11 10 11 10 8 6 6 7 7 4 4 2 3 7 10 14 14 10 7 7 5 4 6 5 6 5 3 2 1 1 3 4 5 6 7 7 10 11 11 10 10 10 10 11 12 12 12 12 12 13 12 13 13 13 13 14 14 13 13 13 12 11 11 11 11 11 10 10 10 10 9 8 8 8 8 6 6 7 7 7 8 8 9 9 9 9 10 11 10 9 12 14 14 14
11 13 12 11 10 11 10 6 6 7 6 8 9 5 3 3 7 8 10 12 11 10 9 7 7 6 3 5 5 4 2 1 4 3 4 4 6 8 8 10 11 11 11 11 11 11 12 12 12 13 13 14 15 15 15 15 15 16 16 15 15 15 15 14 13 13 14 13 12 12 12 12 10 9 9 9 8 7 7 7 7 7 9 9 9 9 9 10 11 10 10 8 7 9 11 12 14
10 10 10 11 12 10 6 5 6 6 4 9 11 8 6 1 4 5 6 7 12 14 11 10 10 8 6 3 4 5 5 3 5 5 5 6 6 8 9 11 11 11 11 11 12 12 13 13 14 15 15 16 17 17 17 17 17 17 17 17 17 17 16 16 16 16 16 15 14 14 14 13 12 11 10 11 11 9 9 9 8 8 9 10 10 9 9 11 12 10 9 8 9 10 10 11 14
7 8 7 7 8 6 5 4 4 4 5 9 9 8 7 3 2 5 6 6 12 16 13 14 14 12 9 5 8 8 6 5 7 4 5 5 7 9 10 12 11 11 11 12 13 13 14 14 15 16 17 17 17 18 18 18 18 18 18 17 17 17 16 16 16 16 16 15 15 15 16 16 15 14 13 13 13 12 12 12 10 10 10 10 10 9 11 13 14 13 11 10 10 11 11 11 14
9 8 6 6 6 5 6 5 3 4 7 10 8 8 6 5 4 5 9 6 11 14 12 14 15 14 12 8 9 9 7 7 6 2 3 1 4 9 10 12 12 12 12 13 13 14 14 15 16 17 17 16 16 17 17 17 18 18 18 17 17 16 16 15 15 16 16 15 15 16 16 17 17 16 15 15 15 14 14 13 13 12 12 12 11 10 11 13 15 15 14 12 11 11 11 11 13
9 9 5 5 5 6 7 6 5 5 7 9 9 7 3 4 6 9 10 5 9 13 11 13 14 14 14 10 8 8 8 6 3 4 1 3 3 9 12 13 12 13 13 13 14 14 14 15 16 16 16 15 16 16 16 16 17 17 17 17 16 16 16 15 15 16 16 15 16 16 16 16 17 16 16 16 16 16 15 15 14 14 13 13 13 11 11 12 12 13 14 13 13 11 11 11 12
10 9 9 7 4 5 7 5 6 7 8 11 10 6 4 3 1 5 6 3 10 14 10 11 12 11 12 11 9 7 6 6 5 2 4 4 7 11 12 13 13 14 14 13 14 14 14 15 15 16 16 15 16 16 16 16 16 17 17 17 17 17 16 16 15 16 16 15 16 16 16 16 17 16 16 16 16 16 16 16 16 15 14 14 13 12 11 10 10 12 13 13 13 11 11 12 12
8 7 8 6 6 6 7 7 8 10 8 8 6 3 4 5 4 7 8 6 9 14 13 12 10 8 9 8 6 4 4 5 4 3 5 4 10 12 11 12 13 14 14 13 13 13 13 14 14 15 15 15 16 16 16 16 16 17 17 17 18 18 17 17 17 17 17 16 16 16 15 16 17 16 16 16 16 17 17 16 16 16 16 15 13 12 12 12 12 12 13 13 13 12 11 12 12
5 6 6 7 8 7 8 7 8 9 7 5 4 3 5 7 6 11 14 15 15 12 12 12 9 7 7 7 8 8 8 9 6 4 2 7 9 9 11 12 13 14 14 13 13 13 13 13 14 15 15 15 15 15 16 16 15 16 17 18 18 18 18 18 18 19 18 18 18 16 15 16 16 16 17 16 16 18 17 17 17 17 17 15 14 13 14 15 14 13 13 13 14 13 12 13 13
7 7 8 11 8 7 6 5 6 7 6 6 6 6 8 7 5 9 11 14 15 14 14 15 15 13 11 11 12 11 10 9 8 9 7 4 6 9 11 13 14 14 13 12 12 12 12 13 12 13 13 14 14 14 15 15 15 15 16 17 18 18 18 18 19 20 20 19 19 17 17 17 17 16 17 17 17 17 17 17 18 18 18 17 16 15 16 15 14 14 14 14 15 15 14 16 16
9 10 11 9 6 6 5 4 6 7 6 7 6 9 11 6 4 5 6 8 10 10 9 10 10 7 4 6 8 7 5 4 6 7 5 2 7 11 12 13 13 12 11 10 9 9 10 10 10 10 11 11 12 13 14 15 15 15 15 16 17 18 18 18 19 19 20 20 19 18 19 18 17 17 17 17 18 17 17 17 17 17 18 18 17 17 16 16 14 14 15 15 15 15 14 15 16
9 8 7 4 4 6 6 4 5 7 6 8 6 8 7 3 4 4 6 6 7 8 8 9 9 9 8 6 5 6 5 5 7 7 6 7 10 12 11 11 11 10 9 9 8 8 8 8 9 9 9 10 10 12 14 15 15 15 15 15 17 17 17 18 18 18 18 19 19 19 19 19 18 18 18 18 18 18 18 18 17 17 17 18 19 18 17 17 16 15 15 15 15 15 14 14 14
6 5 5 4 4 4 6 6 6 6 6 7 6 4 2 3 6 4 7 9 8 8 8 7 7 8 8 8 8 6 5 6 7 5 7 10 11 12 11 11 10 9 9 9 9 9 9 9 9 9 9 10 10 11 13 14 15 15 15 16 17 17 17 18 18 18 17 17 18 19 19 19 19 18 19 19 19 18 19 19 18 17 17 18 18 18 19 18 17 17 16 15 15 16 15 14 15
2 4 5 6 5 4 6 6 6 6 7 8 5 2 0 4 5 4 6 8 7 8 8 6 7 5 3 3 4 3 1 4 5 1 8 10 11 13 11 10 9 9 10 10 9 9 9 8 7 6 7 9 11 11 12 14 16 15 15 16 17 18 18 18 18 18 17 17 17 18 18 19 19 18 18 18 19 19 19 19 19 18 18 18 17 18 19 19 18 19 18 17 16 16 15 15 18
Wind_Direction
166 156 167 179 175 155 125 109 82 161 346 352 30 71 353 348 358 17 40 25 72 42 23 32 48 51 59 79 76 72 61 38 41 61 103 134 145 150 142 138 142 140 139 141 141 140 142 141 137 139 140 143 145 144 142 141 140 136 134 132 131 131 130 130 129 126 124 125 120 113 115 115 113 110 109 106 101 103 106 105 104 110 116 121 124 119 108 100 94 88 85 82 80 75 70 69 65
186 177 184 187 176 169 119 143 157 165 131 52 49 55 25 354 8 29 22 19 36 7 25 37 43 48 53 75 72 73 49 22 64 79 108 136 142 145 141 142 143 140 141 142 141 139 143 143 140 140 140 142 144 145 144 143 143 140 139 137 136 136 136 134 132 131 129 129 125 120 122 122 119 119 117 113 108 110 112 113 112 115 119 125 130 129 118 108 100 92 88 86 84 78 73 70 70
200 199 191 170 172 212 359 157 273 111 117 73 57 26 35 23 18 29 12 1 15 21 30 35 45 37 38 61 48 66 49 3 67 85 117 134 136 141 144 143 141 140 141 142 142 141 144 144 143 143 141 142 142 144 144 144 144 145 144 141 142 142 141 137 136 137 134 134 132 129 131 130 128 128 128 124 119 118 119 120 119 121 124 133 139 138 128 118 110 101 94 89 88 83 78 74 73
212 230 192 146 162 231 202 276 327 41 86 87 80 17 46 43 17 21 20 354 6 48 39 21 53 20 38 65 45 58 55 333 9 74 127 134 140 144 146 143 140 139 141 143 142 142 146 146 144 144 143 142 142 144 144 146 146 148 147 145 148 148 144 141 140 142 140 140 140 140 138 137 137 139 141 138 132 127 128 128 126 130 135 141 143 145 139 129 121 111 102 93 92 86 80 78 77
220 244 210 173 129 257 243 299 356 41 43 50 82 45 46 53 46 28 17 10 39 57 43 21 59 48 67 66 34 54 51 300 342 41 129 134 144 147 145 142 140 141 142 144 143 143 149 149 146 145 144 144 144 145 145 147 149 148 147 148 150 150 146 142 144 146 146 148 149 148 142 144 148 151 154 147 137 134 138 139 139 142 144 144 146 150 150 141 131 120 109 98 94 86 78 77 79
223 241 226 210 279 305 286 48 50 58 41 26 74 77 69 88 117 75 342 95 76 64 58 52 73 76 76 56 37 47 27 60 28 111 131 135 142 142 141 140 141 142 142 144 143 145 151 151 148 147 146 146 146 146 147 149 150 148 148 152 150 150 149 144 147 149 151 155 157 155 149 155 161 158 157 149 140 139 144 149 152 152 149 147 149 153 155 152 142 133 121 108 95 81 75 74 77
227 228 220 238 251 233 348 57 57 59 57 41 71 93 117 132 125 84 353 72 72 60 58 58 92 100 76 26 21 17 6 67 142 138 135 137 138 137 140 140 138 137 139 142 140 148 155 154 151 150 148 148 148 146 149 152 152 151 153 155 152 152 152 148 152 154 156 159 162 163 159 164 169 165 162 152 145 143 145 153 157 155 153 155 155 155 157 158 154 150 142 125 108 87 74 72 75
247 215 229 273 277 225 27 58 66 60 67 67 78 97 125 131 146 99 44 53 62 52 49 51 99 101 93 134 61 342 309 217 147 133 137 138 137 140 141 137 133 133 136 138 141 152 157 157 155 154 152 151 151 149 151 154 157 158 160 161 158 159 158 155 159 161 161 163 167 168 166 170 174 174 169 157 152 150 153 158 160 159 157 161 160 155 159 163 165 164 160 151 131 109 84 69 71
246 228 248 267 279 281 55 62 73 72 71 72 79 94 113 120 105 84 66 55 56 56 50 35 76 98 99 97 86 10 250 165 127 128 136 135 139 143 137 135 136 134 135 139 147 155 156 157 158 156 155 154 153 153 155 157 161 165 167 169 168 167 166 163 165 167 168 168 171 174 173 175 179 182 175 166 161 160 163 165 166 169 164 164 166 160 162 167 172 175 176 175 156 131 110 85 61
238 201 257 280 276 32 58 61 68 78 78 71 74 80 76 77 66 59 69 60 45 62 71 54 61 98 122 87 85 90 136 133 127 131 134 134 141 138 130 136 140 138 138 141 146 151 153 156 159 158 156 155 156 157 159 161 164 167 171 174 176 176 174 173 171 172 174 173 176 180 182 182 184 186 184 176 169 170 171 173 176 179 174 173 175 170 169 171 178 184 187 191 186 159 131 118 79
268 200 226 292 11 43 47 60 66 77 85 84 75 66 58 57 67 69 81 73 48 68 86 61 65 102 117 87 77 310 127 132 130 131 132 136 142 134 134 140 141 141 140 140 144 147 152 158 160 159 157 158 159 160 162 165 166 167 170 173 177 178 176 177 176 175 176 177 181 185 190 193 192 189 190 187 182 183 180 182 188 187 184 187 193 190 183 179 186 194 198 202 213 214 194 164 123
299 302 227 339 30 41 45 62 69 76 75 73 62 49 59 59 72 75 81 87 81 81 62 48 119 123 95 97 69 309 124 128 125 124 129 138 141 136 138 141 142 140 137 141 144 145 152 159 162 162 161 161 162 164 167 169 169 170 171 173 176 177 175 175 177 177 177 180 184 189 196 196 196 194 192 193 197 195 191 191 194 197 194 193 206 216 210 200 198 203 212 215 221 233 240 246 238
282 297 333 20 31 38 44 57 60 68 62 57 46 34 55 54 71 75 73 86 85 89 71 75 141 139 76 103 80 315 126 125 125 125 134 140 137 134 133 138 141 138 139 145 145 146 154 160 163 166 166 165 166 168 171 172 174 174 174 177 178 179 176 174 176 178 179 184 188 192 198 197 197 200 197 197 202 203 203 200 201 208 207 203 206 215 223 220 216 213 220 226 228 237 245 255 261
261 293 6 33 38 42 37 45 50 51 60 61 24 9 51 36 45 71 73 80 70 75 94 90 135 117 103 123 118 190 128 127 133 134 137 136 134 134 136 144 146 143 146 150 151 150 154 162 166 169 171 170 171 173 176 178 178 180 181 181 182 183 182 181 182 182 185 190 194 199 201 201 203 206 206 204 207 209 211 210 211 216 216 216 211 212 219 221 227 226 227 233 234 235 242 253 259
289 347 40 46 36 43 33 32 49 47 62 67 339 338 77 38 355 38 56 71 76 68 114 117 57 96 137 152 140 138 126 132 140 135 131 133 139 135 135 144 145 144 147 149 152 152 155 163 166 173 176 174 176 178 181 184 184 185 186 187 189 189 190 191 191 190 193 196 201 208 208 209 214 215 216 216 217 216 215 216 218 220 220 221 221 220 220 219 224 228 232 238 241 240 242 250 254
309 14 44 50 37 35 32 31 46 52 71 91 196 167 91 40 348 41 38 66 99 53 340 108 28 18 133 144 144 136 130 139 143 141 142 145 144 134 135 142 142 144 149 151 151 154 158 161 167 177 179 177 179 181 184 188 189 190 190 193 197 197 200 201 201 203 202 204 206 209 211 214 221 222 221 223 227 228 223 223 223 225 228 228 229 230 230 229 227 226 228 234 244 247 246 250 253
332 34 45 48 48 39 35 36 38 55 88 128 167 141 96 100 127 118 136 119 108 109 321 360 10 23 102 123 138 136 135 143 148 148 144 144 145 141 143 146 146 146 153 158 155 158 162 163 169 177 180 180 178 181 186 189 190 193 195 199 203 205 209 209 209 210 206 207 211 211 209 211 217 222 226 228 234 237 230 229 229 231 236 237 236 235 235 236 236 235 230 231 240 248 254 256 257
347 45 56 45 50 48 41 45 45 53 72 118 129 101 96 111 130 146 168 129 117 147 153 304 145 103 97 117 133 139 144 151 151 148 145 153 157 151 149 157 157 149 158 163 159 161 164 168 172 175 180 181 180 184 187 190 194 195 197 202 207 211 214 216 214 212 210 212 216 217 211 209 213 218 228 232 228 230 231 233 235 233 238 242 241 240 240 238 239 240 235 235 238 245 254 258 261
37 48 66 60 58 61 52 53 58 57 56 91 112 107 103 89 119 160 192 123 129 133 124 189 131 106 108 121 135 142 148 158 155 155 160 137 83 86 129 151 148 131 152 167 169 169 166 170 176 180 178 181 188 189 189 195 203 201 200 204 208 211 214 219 218 214 214 216 216 217 216 215 217 218 224 228 222 223 230 235 237 236 238 242 241 241 243 243 243 244 242 242 245 248 250 255 259
56 56 71 77 75 74 70 66 58 64 63 64 94 113 116 103 146 154 34 64 125 118 135 178 123 115 129 126 135 146 151 157 155 160 161 108 67 48 70 61 61 55 26 169 181 179 171 173 180 185 178 185 194 191 192 200 207 206 205 210 213 214 214 217 220 218 220 221 218 219 219 217 220 224 224 224 223 225 229 233 239 243 241 242 242 241 242 244 245 248 250 251 252 250 249 253 257
62 66 85 94 89 80 72 67 59 60 56 45 80 108 114 122 52 57 71 43 46 109 160 146 104 123 136 127 137 150 149 141 141 155 156 120 108 133 93 59 79 90 7 36 160 186 182 183 184 184 180 188 197 196 200 206 210 212 211 214 218 218 216 217 218 219 223 222 220 221 222 224 226 227 226 224 225 228 231 236 247 252 250 249 246 242 241 242 244 249 252 254 255 253 253 253 255
56 72 82 95 91 72 60 57 59 56 42 28 45 70 96 109 69 38 56 54 35 66 143 118 114 166 150 131 141 143 133 117 125 147 128 99 108 116 103 100 117 135 128 119 178 206 193 196 193 187 185 192 202 207 211 214 213 215 216 217 221 222 221 220 219 220 222 223 224 221 221 229 232 229 229 231 235 237 238 244 251 255 254 251 245 242 242 240 242 247 250 253 258 259 260 255 250
41 78 79 88 87 67 56 54 47 43 34 28 28 41 63 72 69 53 51 48 44 48 35 55 87 154 160 117 132 137 130 127 136 138 102 79 91 82 99 106 122 142 143 155 187 205 196 209 211 198 195 196 202 208 213 220 218 216 218 221 226 228 226 224 225 222 221 223 227 226 222 229 233 233 236 242 248 247 248 253 255 256 253 249 245 245 245 243 244 247 250 256 261 261 257 247 245
63 82 87 89 91 73 65 62 49 48 35 30 26 30 44 56 66 67 70 61 52 63 55 41 64 77 60 47 31 46 85 126 131 116 110 121 140 152 167 110 139 160 168 175 188 201 200 207 211 209 205 198 202 206 211 220 220 221 225 227 234 237 229 228 232 230 230 232 231 229 224 226 231 235 241 248 252 252 256 260 257 252 249 248 246 246 248 250 253 254 257 260 262 261 252 245 249
73 66 89 96 101 86 82 82 69 78 50 24 30 31 31 50 72 68 73 75 67 86 115 103 92 87 67 62 51 32 19 2 97 112 124 146 180 170 171 214 186 188 204 200 196 201 209 212 214 220 212 197 201 208 212 218 215 218 223 224 231 237 236 237 242 245 254 244 230 228 220 217 228 234 240 247 252 254 258 261 256 252 250 249 246 247 254 257 259 262 265 262 258 259 253 246 249
67 66 97 107 111 102 98 105 85 72 67 42 35 37 25 18 66 70 60 76 83 83 91 93 104 106 104 108 106 103 100 295 329 102 131 136 164 190 214 219 203 208 215 212 214 214 219 228 226 230 231 210 206 210 214 220 219 223 227 228 229 234 244 250 248 251 273 246 228 233 228 218 223 233 239 244 253 258 259 260 258 256 254 253 251 250 254 256 257 259 264 264 258 252 248 244 244
51 93 100 105 115 121 128 114 95 55 63 80 46 38 39 26 44 67 59 75 82 69 67 66 78 98 110 115 115 134 159 199 177 84 56 82 58 293 252 230 226 234 228 225 226 223 220 224 224 233 252 235 216 214 214 217 224 232 238 244 240 233 238 243 242 241 248 261 256 239 236 232 230 237 246 248 256 263 261 259 258 255 255 259 260 256 256 256 254 253 253 258 259 250 244 242 240
194 117 112 108 108 119 125 119 106 81 64 90 77 58 48 44 54 72 80 80 78 68 64 64 65 84 100 107 121 147 156 186 155 128 138 101 77 293 283 252 235 239 229 229 226 217 221 225 228 243 255 246 227 226 223 223 239 247 254 260 253 237 235 241 246 247 249 260 288 258 243 243 239 244 252 252 258 264 262 258 257 255 256 259 261 262 264 261 254 251 250 251 255 255 252 248 243
147 113 147 115 103 107 117 128 123 125 109 77 97 103 55 48 63 76 80 80 86 85 73 72 73 78 91 111 144 160 157 168 170 171 148 106 152 219 261 254 242 247 232 226 224 216 228 231 232 243 251 249 243 250 241 230 234 242 252 258 255 250 251 253 252 255 255 250 256 261 257 251 245 249 254 256 261 265 263 261 260 260 258 255 256 263 266 261 255 251 250 248 246 250 254 253 251
111 151 236 142 153 143 134 149 140 141 134 102 103 99 53 54 89 75 57 62 83 98 103 99 91 79 93 129 156 162 160 162 172 171 134 113 164 196 231 248 242 245 233 222 222 218 222 224 228 230 230 231 226 237 240 232 224 225 241 247 248 250 251 253 252 252 253 249 249 256 261 260 257 258 259 261 265 268 266 263 262 261 260 257 257 261 260 258 256 250 249 250 244 244 249 253 254
172 164 181 227 216 158 175 174 156 165 156 143 118 70 79 121 145 121 64 60 60 131 135 134 134 135 156 162 165 160 157 161 167 159 137 137 155 175 200 230 230 232 233 225 222 223 223 219 220 211 196 205 212 228 237 237 232 227 236 243 244 245 243 247 252 251 249 251 254 258 262 262 261 263 265 264 264 265 265 262 262 265 267 266 263 262 262 260 257 253 251 250 246 244 249 255 257
210 185 192 218 220 165 194 176 172 195 154 163 166 83 119 151 137 139 113 111 255 271 129 136 137 142 163 181 197 174 146 152 148 146 138 139 149 164 174 195 215 224 240 239 228 222 220 214 214 210 179 171 202 225 231 233 231 227 235 246 251 251 251 256 256 252 248 252 256 258 264 266 257 256 263 263 262 262 264 264 266 268 266 263 264 262 261 260 259 257 256 252 248 245 248 255 258
229 246 224 194 173 172 185 168 174 190 151 176 200 116 128 159 157 156 143 162 235 329 73 90 100 132 173 185 185 140 115 127 115 111 105 120 141 156 159 178 212 219 235 254 256 257 245 218 211 212 157 157 209 225 222 226 230 233 242 251 254 251 254 262 263 258 249 248 254 255 264 273 264 258 266 264 260 259 260 263 267 267 261 257 261 263 261 263 261 256 255 253 250 249 250 254 259
279 261 286 137 163 167 165 160 161 168 168 192 200 139 135 154 159 163 154 155 160 22 67 60 54 107 98 81 85 52 80 97 76 82 75 81 112 135 149 172 199 232 259 280 303 300 307 284 226 222 113 159 226 236 222 228 243 251 253 255 253 252 257 264 270 267 252 244 250 252 254 265 265 263 267 260 255 256 255 261 266 264 260 256 258 263 263 262 259 256 260 257 251 251 252 253 256
335 330 339 346 168 159 141 142 149 164 187 217 190 108 110 141 142 158 161 137 121 72 74 63 13 26 35 18 47 24 347 67 59 45 48 66 71 71 137 161 157 137 207 283 322 277 317 325 301 10 103 148 219 251 234 229 247 258 265 267 259 263 267 267 272 265 253 244 241 242 242 251 252 246 249 250 253 262 262 263 267 265 259 253 252 257 258 258 258 258 261 259 255 255 254 256 260
327 335 304 298 315 122 126 135 146 164 182 197 146 116 128 144 140 157 176 131 118 93 75 64 348 1 34 360 22 18 3 50 58 43 40 51 54 44 76 129 135 139 161 177 200 193 245 286 287 41 113 131 194 236 224 220 239 255 269 271 264 276 286 279 272 257 256 257 248 244 238 242 251 242 241 248 252 263 266 262 267 267 260 256 254 252 252 253 253 252 254 256 259 257 252 255 261
308 305 281 286 300 119 120 127 142 168 188 116 112 126 141 131 138 158 177 159 125 101 98 107 287 344 23 348 352 21 20 54 69 62 66 58 45 46 52 77 113 129 148 158 166 156 169 213 209 142 130 126 158 218 220 215 243 257 266 278 282 294 299 281 263 261 263 261 261 264 254 256 281 275 251 259 271 268 263 261 261 266 267 263 257 256 256 251 247 248 249 252 255 252 251 257 260
297 289 283 295 317 64 88 103 133 160 213 133 145 196 158 130 143 156 169 175 136 119 124 133 137 37 13 329 339 16 18 31 63 67 77 82 69 61 54 37 60 96 124 129 145 143 156 199 185 140 136 132 135 181 241 226 234 254 261 284 298 306 309 295 279 285 283 278 287 294 304 309 306 305 288 286 295 292 276 263 257 266 271 264 257 260 262 251 244 245 239 240 247 253 258 262 256
294 290 285 294 344 42 83 99 124 142 170 158 175 244 193 147 151 158 167 168 115 113 137 136 126 107 153 279 327 327 23 23 69 83 82 90 96 106 101 65 41 80 105 97 115 128 120 100 56 57 107 122 123 127 206 222 242 275 281 289 305 309 299 292 290 294 295 304 310 297 303 301 290 304 309 286 285 298 294 280 275 280 275 267 263 264 262 249 246 250 242 237 248 259 262 259 252
263 270 279 292 14 20 76 124 149 173 195 154 175 245 191 135 145 149 141 122 97 65 84 116 117 128 169 174 90 269 144 112 83 89 97 113 119 120 107 101 91 79 72 73 79 86 82 66 56 47 54 75 84 82 87 100 131 247 281 281 279 260 255 262 287 318 327 323 322 313 309 301 300 314 306 277 275 301 307 297 296 286 274 273 269 261 257 251 249 253 249 245 246 247 250 253 252
268 271 272 298 359 355 347 224 188 189 181 156 185 236 129 131 149 133 103 103 109 84 62 74 88 122 149 117 103 45 70 143 112 103 130 130 118 119 114 116 108 88 68 61 56 56 61 55 54 54 48 47 48 45 46 53 59 91 175 227 217 227 246 354 3 12 17 355 347 344 336 326 325 324 313 302 291 293 298 286 282 272 266 270 264 255 255 255 251 250 249 248 242 238 244 255 263
295 345 351 355 350 333 328 305 281 255 213 164 184 268 115 148 158 138 123 123 126 114 104 94 55 132 140 105 93 85 45 142 120 124 144 130 123 125 121 118 104 91 76 67 61 58 61 57 54 55 50 44 41 38 35 33 33 35 33 29 23 5 27 41 27 22 20 5 358 349 344 343 341 333 327 317 298 298 287 265 261 260 261 266 263 261 267 267 264 258 253 250 246 242 247 259 264
290 12 2 360 330 310 310 301 297 305 306 179 175 283 74 157 163 154 144 138 135 126 140 161 250 202 137 102 101 147 134 103 117 130 138 137 132 123 114 108 101 95 84 77 75 68 64 62 58 53 50 45 41 41 38 34 32 28 27 30 26 21 27 31 27 25 16 7 3 350 347 350 348 340 334 326 320 332 310 262 262 270 265 269 277 280 283 280 269 263 260 258 255 250 248 255 261
316 31 2 336 319 313 317 316 311 303 301 280 178 22 27 140 154 158 142 131 135 159 192 170 238 238 154 123 138 143 93 104 147 145 145 154 134 119 112 102 97 95 89 81 76 70 66 63 61 56 52 50 47 47 45 40 37 32 30 32 30 28 26 22 26 27 18 9 4 357 353 352 349 343 340 338 339 340 316 278 287 299 295 287 286 292 294 280 265 267 270 265 259 252 249 252 258
322 19 352 321 317 308 301 300 294 298 313 311 328 15 16 136 140 153 140 135 149 187 206 184 229 238 159 126 128 98 55 352 232 167 157 155 133 120 110 100 95 92 87 83 78 74 71 65 64 61 52 51 50 49 49 46 42 39 36 34 32 30 26 22 24 24 20 13 7 5 2 360 355 349 345 342 338 334 322 313 310 309 311 302 292 300 299 277 267 275 278 271 260 256 254 251 255
323 348 324 300 284 266 265 282 309 337 347 314 303 302 259 164 142 161 160 157 161 176 200 199 208 211 140 108 115 117 115 343 292 219 150 136 127 119 109 100 95 92 88 86 82 75 71 67 64 61 55 53 51 48 49 46 43 41 38 36 32 28 24 21 20 20 18 13 10 8 2 358 356 355 354 347 344 339 331 333 326 312 311 305 298 300 297 285 281 279 277 272 263 262 261 255 255
307 308 294 289 277 265 278 311 320 323 309 298 302 298 287 235 148 175 180 168 155 160 182 192 188 168 134 114 151 175 151 119 274 242 137 126 122 111 104 98 91 93 91 85 81 75 72 69 65 63 58 55 53 49 49 46 43 40 37 35 32 27 23 21 19 16 13 11 8 4 358 355 353 352 352 351 352 350 343 342 336 325 317 307 299 296 293 289 289 288 283 276 267 264 262 258 258
272 275 279 289 287 289 297 268 258 291 297 293 301 311 320 351 167 178 157 152 155 159 169 177 177 156 142 178 187 177 145 149 229 227 123 131 131 115 105 99 91 88 86 82 80 76 73 69 67 65 59 56 54 50 48 45 42 39 35 33 30 26 23 22 19 13 9 8 4 360 358 357 357 355 355 353 352 349 348 347 341 335 329 319 311 306 298 290 287 288 287 284 278 273 269 265 265
237 249 258 275 287 292 287 272 269 304 288 287 322 351 360 49 56 105 124 152 163 158 161 166 167 150 149 190 187 160 151 174 202 126 81 202 143 118 103 94 90 86 82 81 81 77 74 71 68 66 60 55 53 50 48 46 43 39 34 31 27 23 21 20 18 11 6 5 2 360 358 358 358 357 356 354 351 347 346 345 343 338 333 326 321 312 302 298 296 294 291 290 286 282 277 271 269
251 255 264 273 291 301 294 297 310 312 289 306 355 9 18 77 50 70 103 146 146 143 156 156 155 151 151 171 178 160 158 158 119 67 57 249 148 109 97 93 90 87 83 79 78 77 75 72 68 67 63 58 54 51 49 46 42 38 34 31 26 21 19 17 14 9 4 2 360 357 357 357 356 354 353 352 350 348 345 344 342 338 334 329 324 316 308 308 308 302 298 296 293 288 280 272 269
277 292 311 300 312 318 309 319 327 325 318 327 346 351 11 66 61 60 83 134 130 137 152 142 145 153 147 156 169 165 150 121 89 94 226 205 114 97 94 95 91 88 85 81 79 76 75 72 68 66 62 57 54 49 46 42 39 34 29 27 22 17 15 12 10 6 1 358 356 353 353 355 353 350 349 349 349 348 346 345 344 341 339 334 326 319 312 305 299 296 297 296 295 293 284 277 269
277 292 296 317 356 331 315 335 328 318 316 324 343 25 70 96 95 39 30 35 90 123 133 122 131 142 134 140 144 135 113 86 87 186 206 122 92 91 96 95 91 88 84 82 80 76 74 71 65 63 59 55 51 46 41 38 34 30 24 21 18 13 10 7 3 0 356 354 352 348 349 351 348 346 346 345 346 346 344 344 344 343 341 337 330 322 312 303 300 299 297 294 295 293 284 283 278
290 274 282 357 354 304 303 327 316 307 308 319 346 43 95 99 59 25 30 40 51 73 83 72 60 52 53 48 36 27 27 27 3 312 6 71 84 94 97 94 91 87 82 79 78 75 73 69 63 60 55 51 47 42 38 33 28 25 20 16 13 9 6 3 358 354 351 350 347 345 348 346 343 344 344 342 342 342 342 343 343 342 340 337 335 332 320 308 306 304 298 295 296 294 288 289 290
295 277 316 354 340 297 307 316 306 311 313 315 339 25 60 71 30 8 34 58 60 53 50 46 37 25 16 16 22 21 18 10 336 320 340 34 98 100 95 94 92 89 87 85 83 79 73 68 63 58 54 49 44 38 34 27 21 18 13 10 8 4 0 358 355 351 349 346 344 345 346 343 341 342 341 340 340 339 339 340 339 341 341 339 338 339 332 318 308 304 303 301 298 295 290 293 296
275 292 318 337 320 302 310 314 318 317 306 302 339 48 57 44 31 32 41 68 85 84 80 84 83 77 52 23 34 47 38 349 301 282 263 185 113 97 95 96 94 93 94 90 88 84 78 74 67 59 55 50 43 35 29 21 15 11 7 5 3 360 356 354 352 349 347 344 343 345 343 340 340 339 338 339 338 336 335 336 337 337 338 339 339 338 336 327 314 308 309 310 308 301 291 292 297
226 281 301 299 301 309 315 321 309 301 298 302 337 55 64 5 356 46 80 107 130 134 129 126 132 140 144 151 153 145 160 204 241 233 183 132 106 99 96 90 86 84 81 72 63 58 57 63 62 52 44 39 37 34 25 16 9 3 0 1 359 356 354 351 348 346 344 342 342 343 341 339 337 336 337 337 335 335 335 336 337 335 333 333 335 335 335 333 327 318 310 307 311 309 297 295 297
190 246 274 276 296 316 317 308 297 305 312 311 336 37 53 344 339 6 94 123 153 151 142 141 144 153 160 164 164 160 172 204 234 215 129 108 102 98 87 79 75 70 65 58 46 38 30 28 32 32 28 22 22 26 21 12 4 356 355 358 355 352 350 347 344 343 341 340 340 339 337 336 335 335 336 335 334 336 336 335 334 331 329 328 329 331 332 332 330 326 317 309 312 311 303 299 298
350 288 306 307 304 312 307 297 310 326 314 312 343 75 308 340 339 355 76 107 135 139 139 130 114 122 132 99 89 73 332 277 272 130 99 93 94 92 84 78 71 60 53 47 37 30 22 16 14 19 26 21 13 13 14 9 358 350 351 353 349 346 344 342 341 341 341 339 338 336 335 334 333 334 334 333 333 333 332 331 329 327 326 325 326 328 329 329 327 326 324 319 317 315 306 301 302